#timestamp,LO_Frequency,Hit,StdDev 
1549764015.4,286046993.5,N
1549764035.2,286046993.5,N
1549764055.0,286046994.4,N
1549764056.0,286046994.4,N
1549764075.8,286046992.1,N
1549764095.6,286046992.3,N
1549764115.5,286046996.1,N
1549764135.3,286046995.7,N
1549764155.1,286046996.1,N
1549764175.9,286046995.4,N
1549764195.7,286046993.4,N
1549764215.6,286046997.6,N
1549764235.4,286046995.3,N
1549764255.2,286046996.1,N
1549764275.1,286046996.1,N
1549764276.0,286046996.1,N
1549764295.8,286046997.6,N
1549764315.6,286046999.2,N
1549764335.5,286046997.1,N
1549764355.3,286046997.6,N
1549764375.2,286046997.1,N
1549764395.9,286046996.7,N
1549764415.7,286046996.9,N
1549764435.6,286046997.8,N
1549764455.4,286046996.5,N
1549764475.2,286046994.9,N
1549764495.1,286046997.3,N
1549764496.0,286046997.3,N
1549764515.8,286046996.8,N
1549764535.7,286046997.0,N
1549764555.5,286046995.3,N
1549764575.3,286046994.9,Y
1549764595.2,286047000.8,P
1549764615.0,286047001.1,N
1549764615.9,286047001.1,N
1549764635.8,286046998.5,N
1549764655.6,286047000.6,N
1549764675.4,286046998.2,N
1549764695.3,286047001.0,N
1549764715.1,286047000.7,N
1549764735.8,286047000.1,N
1549764755.7,286047000.6,N
1549764775.5,286047000.5,N
1549764795.4,286047000.1,N
1549764815.2,286047000.2,N
1549764835.0,286046999.9,N
1549764835.9,286046999.9,N
1549764855.8,286047000.4,N
1549764875.6,286047000.3,N
1549764895.4,286047002.4,N
1549764915.3,286047001.6,N
1549764935.1,286047004.0,Y
1549764955.9,286047002.0,P
1549764975.7,286047001.9,N
1549764995.5,286046999.7,N
1549765015.4,286046999.7,N
1549765035.2,286047002.2,N
1549765055.1,286047002.0,N
1549765056.0,286047002.0,N
1549765075.8,286047004.4,Y
1549765095.6,286047002.8,P
1549765115.5,286047001.9,N
1549765135.3,286047002.5,P
1549765155.1,286047002.4,Y
1549765175.9,286047000.5,P
1549765195.7,286047000.0,N
1549765215.6,286047001.0,N
1549765235.4,286047000.5,N
1549765255.2,286047000.0,N
1549765275.1,286047002.3,Y
1549765276.0,286047002.3,P
1549765295.8,286047002.8,P
1549765315.7,286047002.7,N
1549765335.5,286047000.5,N
1549765355.3,286047000.6,N
1549765375.2,286047000.6,N
1549765395.0,286047001.2,N
1549765395.9,286047001.2,N
1549765415.7,286047000.4,N
1549765435.6,286046999.8,N
1549765455.4,286047000.2,N
1549765475.3,286047001.7,N
1549765495.1,286047002.0,N
1549765496.0,286047002.0,N
1549765515.8,286047002.7,N
1549765535.7,286046999.8,N
1549765555.5,286047000.2,N
1549765575.3,286047000.7,N
1549765595.2,286047000.5,N
1549765615.0,286047002.5,N
1549765615.9,286047002.5,N
1549765635.8,286047000.4,N
1549765655.6,286047002.4,N
1549765675.4,286047000.1,N
1549765695.3,286047002.8,N
1549765715.1,286047000.1,N
1549765735.9,286046999.8,N
1549765755.7,286046999.7,N
1549765775.5,286046999.9,N
1549765795.4,286047001.2,N
1549765815.2,286047000.3,N
1549765835.0,286046999.9,N
1549765835.9,286046999.9,N
1549765855.8,286047001.0,N
1549765875.6,286047001.0,N
1549765895.5,286047000.6,N
1549765915.3,286047002.6,N
1549765935.1,286046999.9,N
1549765955.9,286047000.0,N
1549765975.7,286047000.1,N
1549765995.5,286047000.1,N
1549766015.4,286047000.4,N
1549766035.2,286046999.9,N
1549766055.1,286047000.1,N
1549766056.0,286047000.1,N
1549766075.8,286046999.8,N
1549766095.6,286047000.4,N
1549766115.5,286046999.9,N
1549766135.3,286047000.8,N
1549766155.2,286046998.4,N
1549766175.9,286046998.6,N
1549766195.7,286046998.6,N
1549766215.6,286046998.5,N
1549766235.4,286046998.6,N
1549766255.2,286046998.4,N
1549766275.1,286046998.4,N
1549766276.0,286046998.4,N
1549766295.8,286046998.4,N
1549766315.7,286046999.3,N
1549766335.5,286046999.3,N
1549766355.3,286046998.8,N
1549766375.2,286046998.5,N
1549766395.0,286046998.6,N
1549766395.9,286046998.6,N
1549766415.8,286046998.3,N
1549766435.6,286047001.2,N
1549766455.4,286046998.5,N
1549766475.3,286046998.2,N
1549766495.1,286047001.1,N
1549766515.8,286047001.0,N
1549766535.7,286047001.1,N
1549766555.5,286047001.0,N
1549766575.4,286047000.8,N
1549766595.2,286046998.7,N
1549766615.0,286046998.7,N
1549766615.9,286046998.7,N
1549766635.8,286047001.0,N
1549766655.6,286047000.7,N
1549766675.5,286046998.5,N
1549766695.3,286047001.0,N
1549766715.1,286047000.2,N
1549766735.9,286047002.2,N
1549766755.7,286047002.2,N
1549766775.5,286046999.7,N
1549766795.4,286047002.2,N
1549766815.2,286047001.9,N
1549766835.1,286047002.1,N
1549766836.0,286047002.1,N
1549766855.8,286047001.6,N
1549766875.6,286047004.3,N
1549766895.5,286047004.2,N
1549766915.3,286047001.4,N
1549766935.1,286047004.2,N
1549766955.9,286047002.2,N
1549766975.7,286046999.9,N
1549766995.6,286047000.7,N
1549767015.4,286047001.0,N
1549767035.2,286047000.9,N
1549767055.1,286046998.4,N
1549767056.0,286046998.4,N
1549767075.8,286046999.6,N
1549767095.7,286046998.6,N
1549767115.5,286047000.3,N
1549767135.3,286047000.9,N
1549767155.2,286046998.6,N
1549767175.0,286046999.2,N
1549767175.9,286046999.2,N
1549767195.7,286046996.6,N
1549767215.6,286046999.6,N
1549767235.4,286046996.7,N
1549767255.3,286046996.5,N
1549767275.1,286046996.8,N
1549767276.0,286046996.8,N
1549767295.8,286047001.2,N
1549767315.7,286046996.5,N
1549767335.5,286046996.9,N
1549767355.4,286046996.7,N
1549767375.2,286046997.3,N
1549767395.0,286046996.6,N
1549767395.9,286046996.6,N
1549767415.8,286046999.6,N
1549767435.6,286047001.2,N
1549767455.4,286046998.5,N
1549767475.3,286047001.2,N
1549767495.1,286047001.1,N
1549767515.9,286046998.8,N
1549767535.7,286046998.9,N
1549767555.5,286046999.4,N
1549767575.4,286046999.5,N
1549767595.2,286046996.9,N
